#timestamp,LO_Frequency,Hit,StdDev 
1513180815.1,286046999.9,N
1513180835.8,286047002.3,N
1513180855.7,286047001.9,N
1513180875.5,286047002.3,N
1513180895.4,286047002.1,N
1513180915.2,286047002.1,N
1513180935.0,286047002.3,N
1513180935.9,286047002.3,N
1513180955.8,286047002.6,Y
1513180975.6,286047002.8,P
1513180995.4,286046999.7,N
1513181015.3,286046998.5,N
1513181035.1,286047000.7,N
1513181055.9,286047001.1,N
1513181075.7,286047000.8,N
1513181095.5,286046999.8,N
1513181115.4,286047000.4,N
1513181135.2,286047000.9,N
1513181155.0,286046998.7,N
1513181156.0,286046998.7,N
1513181175.8,286046999.0,N
1513181195.6,286046997.1,N
1513181215.5,286046997.7,N
1513181235.3,286046997.5,N
1513181255.1,286046997.6,N
1513181275.9,286046996.6,N
1513181295.7,286046995.4,N
1513181315.6,286046996.3,N
1513181335.4,286046993.3,Y
1513181355.2,286046996.4,P
1513181375.1,286046996.1,N
1513181376.0,286046996.1,N
1513181395.8,286046996.2,Y
1513181415.7,286046998.4,P
1513181435.5,286046996.6,P
1513181455.3,286046996.6,P
1513181475.2,286046995.9,Y
1513181495.0,286046999.4,P
1513181495.9,286046999.4,N
1513181515.8,286046997.2,N
1513181535.6,286046998.8,N
1513181555.4,286046999.3,N
1513181575.3,286046999.5,N
1513181595.1,286046999.3,N
1513181615.9,286047001.2,N
1513181635.7,286047001.0,N
1513181655.5,286046998.2,N
1513181675.4,286046999.4,N
1513181695.2,286046998.9,N
1513181715.0,286046996.8,N
1513181715.9,286046996.8,N
1513181735.8,286046998.2,N
1513181755.6,286046996.6,N
1513181805.5,286046998.6,E
1513181815.4,286046998.1,N
1513181835.2,286046999.9,P
1513181855.1,286047000.1,N
1513181856.0,286047000.1,N
1513181875.8,286047001.0,N
1513181895.7,286047000.5,N
1513181915.5,286047000.2,N
1513181935.3,286047001.0,N
1513181955.2,286047000.5,N
1513181975.0,286047000.8,N
1513181975.9,286047000.8,N
1513181995.8,286046998.1,N
1513182015.6,286046999.8,N
1513182035.4,286047001.9,N
1513182055.3,286047001.2,N
1513182075.1,286046998.5,N
1513182095.9,286046998.8,N
1513182115.7,286046998.0,N
1513182135.5,286046995.4,Y
1513182155.4,286046996.1,P
1513182175.2,286046995.7,N
1513182195.1,286046997.7,N
1513182196.0,286046997.7,N
1513182215.8,286046997.6,N
1513182235.6,286046995.1,Y
1513182255.5,286046998.4,P
1513182275.3,286047001.0,N
1513182295.1,286047001.2,N
1513182315.9,286047000.3,N
1513182335.7,286047000.8,N
1513182355.6,286046999.8,N
1513182375.4,286047000.4,N
1513182395.2,286047002.1,N
1513182415.1,286047001.9,N
1513182416.0,286047001.9,N
1513182435.8,286047002.1,N
1513182455.7,286047000.1,N
1513182475.5,286046999.8,N
1513182495.3,286047000.3,N
1513182515.2,286046999.8,N
1513182535.0,286047002.4,N
1513182535.9,286047002.4,N
1513182555.8,286047001.1,N
1513182575.6,286047001.1,N
1513182595.4,286047000.0,N
1513182615.3,286047002.6,N
1513182635.1,286047002.7,N
1513182655.9,286047002.2,N
1513182675.7,286046999.8,N
1513182695.5,286046999.9,N
1513182715.4,286047000.1,N
1513182735.2,286046999.9,N
1513182755.0,286047001.0,N
1513182756.0,286047001.0,N
1513182775.8,286046999.0,N
1513182795.6,286047001.1,N
1513182815.5,286046998.2,N
1513182835.3,286046999.1,N
1513182855.1,286046997.8,N
1513182875.9,286046997.5,N
1513182895.7,286046999.3,N
1513182915.6,286046999.2,N
1513182935.4,286046997.0,N
1513182955.2,286046996.9,N
1513182975.1,286046997.9,N
1513182976.0,286046997.9,N
1513182995.8,286046999.2,N
1513183015.7,286046996.6,N
1513183035.5,286046997.7,N
1513183055.3,286046995.3,N
1513183075.2,286046997.9,N
1513183095.0,286046997.8,N
1513183095.9,286046997.8,N
1513183115.7,286046999.6,N
1513183135.6,286046996.8,N
1513183155.4,286046997.7,N
1513183175.3,286046998.8,N
1513183195.1,286047000.4,N
1513183196.0,286047000.4,N
1513183215.8,286047000.6,N
1513183235.7,286047000.1,N
1513183255.5,286047000.8,N
1513183275.4,286047000.7,N
1513183295.2,286047002.8,N
1513183315.0,286047001.1,N
1513183315.9,286047001.1,N
1513183335.8,286046998.2,N
1513183355.6,286046998.9,N
1513183375.4,286046999.6,N
1513183395.3,286046999.6,N
1513183415.1,286046999.1,N
1513183435.9,286046996.6,N
1513183455.7,286046997.1,N
1513183475.5,286046996.9,N
1513183495.4,286046996.8,N
1513183515.2,286046997.5,N
1513183535.0,286046998.9,N
1513183535.9,286046998.9,N
1513183555.8,286046998.4,N
1513183575.6,286046999.6,N
1513183595.5,286047000.7,N
1513183615.3,286047001.0,N
1513183635.1,286047002.3,N
1513183655.9,286047004.3,N
1513183675.7,286047004.3,N
1513183695.5,286047001.4,N
1513183715.4,286047004.0,N
1513183735.2,286047002.8,N
1513183755.1,286046999.7,N
1513183756.0,286046999.7,N
1513183775.8,286047000.3,N
1513183795.6,286047000.3,N
1513183815.5,286046999.9,N
1513183835.3,286047001.1,N
1513183855.1,286046999.8,N
1513183875.9,286046999.7,N
1513183895.7,286047001.5,N
1513183915.6,286047002.3,N
1513183935.4,286046999.9,N
1513183955.2,286047002.2,N
1513183975.1,286047001.6,N
1513183976.0,286047001.6,N
1513183995.8,286047001.3,N
1513184015.6,286047002.5,N
1513184035.5,286047002.6,N
1513184055.3,286047004.1,N
1513184075.2,286047002.2,N
1513184095.9,286047002.5,N
1513184115.7,286047002.4,N
1513184135.6,286047001.0,N
1513184155.4,286047000.0,N
1513184175.2,286047000.1,N
1513184195.1,286047000.6,N
1513184196.0,286047000.6,N
1513184215.8,286047002.7,N
1513184235.7,286047001.4,N
1513184255.5,286047001.3,N
1513184275.3,286047001.6,N
1513184295.2,286047004.0,Y
1513184315.0,286047001.4,P
1513184315.9,286047001.4,P
1513184335.8,286047003.8,P
1513184355.6,286047000.6,N
1513184375.4,286047002.3,N
1513184395.3,286047002.6,N
